Regional Weather Roundup
Issued by NWS

Home | Current Version | Previous Version | Graphics & Text | Print | Product List | Glossary On
Versions: 1 2 3 4 5 6 7 8 9 10 11 12 13 14 15 16 17 18 19 20 21 22 23 24 25 26 27 28 29 30 31 32 33 34 35 36 37 38 39 40 41 42 43 44 45 46 47 48 49 50
000
ASUS45 KCYS 290310
RWRWY

WYOMING REGIONAL WEATHER ROUNDUP
NATIONAL WEATHER SERVICE CHEYENNE WY
900 PM MDT FRI AUG 28 2015

NOTE:  "FAIR" INDICATES FEW OR NO CLOUDS BELOW 12,000 FEET
WITH NO SIGNIFICANT WEATHER AND/OR OBSTRUCTIONS TO VISIBILITY.

WYZ001-290400-
YELLOWSTONE NATIONAL PARK

CITY           SKY/WX    TMP DP  RH WIND       PRES   REMARKS
LK YELLOWSTONE   N/A     52  38  58 CALM      30.37R
W YELLOWSTONE  NOT AVBL

$$
WYZ002>013-054>058-071-098>099-290400-
NORTHERN WYOMING

CITY           SKY/WX    TMP DP  RH WIND       PRES   REMARKS
JACKSON        FAIR      70  43  37 E3        30.25R
CODY           FAIR      73  37  27 CALM      30.13R
GREYBULL       FAIR      75  47  36 E6        30.05R
WORLAND        FAIR      73  40  30 SE12      30.07R
SHERIDAN       FAIR      63  50  62 CALM      30.09R
BUFFALO        FAIR      67  43  41 W7        30.18R
GILLETTE         N/A     64  44  48 CALM      30.12R
HULETT         FAIR      66  52  59 E7        30.14R
NEWCASTLE      FAIR      68  39  34 NE7       30.13R

$$
WYZ014>020-022>026-101>103-290400-
CENTRAL WYOMING

CITY           SKY/WX    TMP DP  RH WIND       PRES   REMARKS
BIG PINEY      FAIR      62  31  31 NE7       30.31R
PINEDALE       FAIR      61  41  48 CALM      30.32R
DUBOIS         FAIR      63  32  31 W10       30.31R
LANDER         FAIR      71  39  31 W14       30.17R
RIVERTON       FAIR      73  35  25 E7        30.18R
CASPER         FAIR      65  35  33 S3        30.19R
DOUGLAS        FAIR      67  38  34 E7        30.19R

$$
WYZ021-027>030-104>119-290400-
SOUTHERN WYOMING

CITY           SKY/WX    TMP DP  RH WIND       PRES   REMARKS
EVANSTON       FAIR      72  31  22 NW5       30.31R
KEMMERER       FAIR      68  32  26 N12       30.33R
FORT BRIDGER   CLEAR     75  32  20 CALM      30.33R
ROCK SPRINGS   FAIR      70  29  21 SE10      30.29R
DIXON          FAIR      64  31  29 NE7       30.33R
RAWLINS        FAIR      62  39  42 SE3       30.32R
SARATOGA       FAIR      59  45  58 SE7       30.36R
LARAMIE        FAIR      62  40  44 CALM      30.37R
CHEYENNE       FAIR      68  41  37 SE3       30.30R
TORRINGTON     FAIR      71  48  43 SE8       30.14R
PINE BLUFFS    FAIR      66  41  39 CALM      30.24R

$$


USA.gov is the U.S. government's official web portal to all federal, state and local government web resources and services.